Regional Weather Roundup
Issued by NWS

Home | Current Version | Previous Version | Graphics & Text | Print | Product List | Glossary On
Versions: 1 2 3 4 5 6 7 8 9 10 11 12 13 14 15 16 17 18 19 20 21 22 23 24 25 26 27 28 29 30 31 32 33 34 35 36 37 38 39 40 41 42 43 44 45 46 47 48 49 50
241
ASUS43 KDTX 271401
RWRMI
MICHIGAN HOURLY REGIONAL WEATHER ROUNDUP
NATIONAL WEATHER SERVICE DETROIT/PONTIAC MI
1000 AM EDT SAT AUG 27 2016

NOTE: "FAIR" INDICATES FEW OR NO CLOUDS BELOW 12,000 FEET WITH NO
SIGNIFICANT WEATHER AND/OR OBSTRUCTION TO VISIBILITY.

MIZ047>049-052>055-059>063-066>070-074>076-081>083-271500-
SOUTHEAST LOWER MICHIGAN

CITY           SKY/WX    TMP DP  RH WIND       PRES   REMARKS
ADRIAN         PTSUNNY   74  63  68 SE6       30.15S
ALMA           RAIN      65  64  97 W7        30.18R
ANN ARBOR      CLOUDY    76  68  76 E8        30.16R
BAD AXE        PTSUNNY   71  67  87 S6        30.17S
CARO           CLOUDY    73  67  84 SE5       30.16R
DETROIT CITY   CLOUDY    76  69  79 SE12      30.16S
DETROIT        CLOUDY    77  68  73 SE10      30.16R
FLINT          CLOUDY    77  67  71 SE10      30.15S
GROSSE ILE     MOSUNNY   78  69  73 SE8       30.15R
HILLSDALE      CLOUDY    74  62  66 SE7       30.14F
HOWELL         CLOUDY    74  68  82 SE10      30.16R

CITY           SKY/WX    TMP DP  RH WIND       PRES   REMARKS
JACKSON        CLOUDY    72  63  73 SE8       30.14S
LAMBERTVILLE   MOSUNNY   79  64  59 SE3       30.15S
LANSING        LGT RAIN  70  64  81 CALM      30.16R
LAPEER         PTSUNNY   73  67  81 SE6       30.18R
MASON          CLOUDY    71  66  84 S7        30.15S
MONROE         CLOUDY    79  69  71 SE6       30.14R
MT. CLEMENS    PTSUNNY   75  71  86 E7        30.15S
PONTIAC        CLOUDY    76  67  73 SE12      30.16S
PORT HURON     MOSUNNY   73  70  88 SE6       30.18R
TRI CITIES     CLOUDY    68  66  93 NE3       30.17R
MIDLAND        CLOUDY    67  66  97 CALM      30.16R
TROY           CLOUDY    79  67  66 SE8       30.18S
SAGINAW HB     CLOUDY    70  64  83 CALM      30.15S
$$
MIZ043>046-050>051-056>058-064>065-071>073-077>080-271500-
SOUTHWEST LOWER MICHIGAN

CITY           SKY/WX    TMP DP  RH WIND       PRES   REMARKS
BATTLE CREEK   CLOUDY    67  67 100 N3        30.14F
BENTON HARBOR  CLOUDY    69  66  90 E5        30.11F
BIG RAPIDS     LGT RAIN  64  63  97 CALM      30.18R
COLDWATER      CLOUDY    72  62  70 E6        30.13S
FREMONT        RAIN      62  61  97 E6        30.16S
HOLLAND        LGT RAIN  65  64  97 E5        30.13F
GRAND RAPIDS   TSTM      64  62  93 E6        30.18S VSB 1
IONIA          RAIN      63  61  93 N5        30.16R
KALAMAZOO      LGT RAIN  68  64  87 N6        30.14S
LUDINGTON      RAIN      61  60  98 E5        30.14S
MARSHALL       CLOUDY    70  66  88 CALM      30.13F
MOUNT PLEASANT LGT RAIN  64  64  97 CALM      30.18R
MUSKEGON       LGT RAIN  64  62  93 E7        30.13F
SOUTH HAVEN    CLOUDY    67  67  99 E3        30.12S
$$
MIZ016>042-271500-
NORTHERN LOWER MICHIGAN

CITY           SKY/WX    TMP DP  RH WIND       PRES   REMARKS
ALPENA         CLOUDY    69  62  78 NE3       30.20S
BEAVER ISLAND  LGT RAIN  64  62  95 E3        30.17F
BELLAIRE       LGT RAIN  64  61  91 CALM      30.17F
CADILLAC       LGT RAIN  62  60  96 E6        30.18S
CHARLEVOIX     LGT RAIN  64  62  93 E5        30.20F
FRANKFORT      RAIN      63  60  91 SE6       30.15F
GAYLORD        LGT RAIN  65  58  78 CALM      30.20F
GRAYLING       LGT RAIN  62  59  91 E3        30.21R
HARBOR SPRINGS DRIZZLE   63  60  91 E8        30.18F
HOUGHTON LAKE  LGT RAIN  63  61  93 E5        30.21R
MANISTEE       HVY RAIN  61  60  97 E8        30.14F FOG
OSCODA         LGT RAIN  71  69  92 S5        30.18R
PELLSTON       LGT RAIN  62  59  90 CALM      30.19F
ROGERS CITY    CLOUDY    66  61  83 CALM      30.22S
TRAVERSE CITY  LGT RAIN  64  60  87 SE3       30.16S
$$
MIZ007>008-015-271500-
EASTERN UPPER MICHIGAN

CITY           SKY/WX    TMP DP  RH WIND       PRES   REMARKS
KINROSS        CLOUDY    61  56  83 E5        30.21S
MACKINAC ISLAN LGT RAIN  62  62 100 E3        30.19F
NEWBERRY       CLOUDY    59  57  92 E3        30.18F
S. S. MARIE    PTSUNNY   60  55  83 E5        30.20F
$$
MIZ004>006-011>014-085-271500-
CENTRAL UPPER MICHIGAN

CITY           SKY/WX    TMP DP  RH WIND       PRES   REMARKS
MANISTIQUE     LGT RAIN  66  64  92 SE5       30.16S
ESCANABA       CLOUDY    64  62  93 W3        30.15S
MENOMINEE      LGT RAIN N/A N/A N/A MISG        N/A
SAWYER-GWINN   PTSUNNY   61  57  88 E6        30.16F
$$
MIZ001>003-009>011-084-271500-
WESTERN UPPER MICHIGAN

CITY           SKY/WX    TMP DP  RH WIND       PRES   REMARKS
IRON MOUNTAIN  CLOUDY    61  58  90 CALM      30.14S
HOUGHTON       CLOUDY    59  55  87 SE3       30.14F
IRONWOOD       MOSUNNY   63  54  72 CALM      30.13S
$$

ABBREVIATIONS USED IN REMARKS
   TC - TEMPERATURE IN CELSIUS
  WCI - WIND CHILL INDEX
   HX - HEAT INDEX
  VSB - VISIBILITY





USA.gov is the U.S. government's official web portal to all federal, state and local government web resources and services.